TimeCDT,TemperatureF,Dew PointF,Humidity,Sea Level PressureIn,VisibilityMPH,Wind Direction,Wind SpeedMPH,Gust SpeedMPH,PrecipitationIn,Events,Conditions,WindDirDegrees,DateUTC
12:53 AM,68.0,66.0,93,30.01,10.0,Calm,Calm,-,N/A,,Clear,0,2012-10-06 05:53:00
1:53 AM,66.9,64.9,93,30.01,10.0,Calm,Calm,-,N/A,,Clear,0,2012-10-06 06:53:00
2:53 AM,66.9,64.9,93,30.02,10.0,Calm,Calm,-,N/A,,Clear,0,2012-10-06 07:53:00
3:53 AM,66.0,64.9,96,30.01,10.0,Calm,Calm,-,N/A,,Clear,0,2012-10-06 08:53:00
4:53 AM,64.9,64.0,97,30.00,10.0,Calm,Calm,-,N/A,,Clear,0,2012-10-06 09:53:00
5:53 AM,64.9,64.9,100,30.01,10.0,Calm,Calm,-,N/A,,Clear,0,2012-10-06 10:53:00
6:53 AM,64.9,64.9,100,30.02,10.0,Calm,Calm,-,N/A,,Partly Cloudy,0,2012-10-06 11:53:00
7:53 AM,66.0,64.9,96,30.03,10.0,Calm,Calm,-,N/A,,Scattered Clouds,0,2012-10-06 12:53:00
8:53 AM,72.0,68.0,87,30.05,10.0,North,4.6,-,N/A,,Scattered Clouds,350,2012-10-06 13:53:00
9:53 AM,73.9,68.0,82,30.06,10.0,NNE,9.2,-,N/A,,Scattered Clouds,20,2012-10-06 14:53:00
10:53 AM,78.1,68.0,71,30.06,10.0,Variable,4.6,-,N/A,,Scattered Clouds,0,2012-10-06 15:53:00
11:53 AM,80.1,66.9,64,30.04,10.0,Calm,Calm,-,N/A,,Mostly Cloudy,0,2012-10-06 16:53:00
12:53 PM,80.1,66.0,62,30.03,10.0,SSE,4.6,-,N/A,,Mostly Cloudy,160,2012-10-06 17:53:00
1:53 PM,81.0,66.9,62,30.00,10.0,East,6.9,-,N/A,,Mostly Cloudy,80,2012-10-06 18:53:00
2:53 PM,82.9,66.0,56,29.97,10.0,Variable,4.6,-,N/A,,Mostly Cloudy,0,2012-10-06 19:53:00
3:53 PM,82.0,66.0,58,29.97,10.0,Variable,5.8,-,N/A,,Mostly Cloudy,0,2012-10-06 20:53:00
4:53 PM,82.9,64.9,54,29.96,10.0,Variable,3.5,-,N/A,,Scattered Clouds,0,2012-10-06 21:53:00
5:53 PM,82.0,64.0,54,29.95,10.0,ESE,4.6,-,N/A,,Partly Cloudy,120,2012-10-06 22:53:00
6:53 PM,78.1,63.0,60,29.96,10.0,ESE,4.6,-,N/A,,Scattered Clouds,110,2012-10-06 23:53:00
7:53 PM,73.9,66.0,76,29.99,10.0,NNE,20.7,-,N/A,,Scattered Clouds,20,2012-10-07 00:53:00
8:04 PM,71.6,66.2,83,29.99,10.0,NNE,18.4,27.6,N/A,,Mostly Cloudy,30,2012-10-07 01:04:00
8:53 PM,69.1,64.0,84,30.03,10.0,NNE,17.3,-,N/A,,Overcast,30,2012-10-07 01:53:00
9:31 PM,68.0,62.6,83,30.02,10.0,NE,13.8,-,N/A,,Overcast,40,2012-10-07 02:31:00
9:53 PM,66.9,63.0,87,30.05,10.0,NE,13.8,-,N/A,,Overcast,40,2012-10-07 02:53:00
10:11 PM,66.2,62.6,88,30.04,10.0,NNE,12.7,-,N/A,,Overcast,20,2012-10-07 03:11:00
10:53 PM,66.2,60.8,83,30.04,10.0,North,15.0,-,N/A,,Overcast,10,2012-10-07 03:53:00
11:53 PM,64.0,59.0,84,30.07,10.0,NNE,16.1,-,N/A,,Overcast,20,2012-10-07 04:53:00